Flag for China Weather past 2 weeks in Tsingtao, Shandong, China

Now
30 °F

Clear.


Feels Like: 24 °F
Forecast: 24 / 36 °F
Wind: 6 mph from Northwest

Location: Qingdao Airport

Current Time: Jan 30, 2015 at 9:27:51 AM

Latest Report: Jan 30, 2015 at 9:00 AM


Visibility: 4 mi

Pressure: 30.48 "Hg

Humidity: 59%

Dew point: 18 °F

Location of TsingtaoLocation

Historic Weather in Tsingtao — Graph

°F

Tsingtao temperature yesterday

Maximum temperature yesterday: 36 °F (at 1:00 PM)
Minimum temperature yesterday: 25 °F (at 4:00 AM)
Average temperature yesterday: 30 °F

Past Weeks' High & Low Weather Summary

 TemperatureHumidityPressure
High52 °F (Jan 24, 2:00 PM)93% (Jan 21, 3:00 PM)30.60 "Hg (Jan 21, 3:00 PM)
Low19 °F (Jan 17, 5:00 AM)21% (Jan 19, 2:00 PM)30.04 "Hg (Jan 18, 3:00 PM)
Average34 °F63%30.32 "Hg
* Reported Jan 15 8:00 AM — Jan 30 8:00 AM, Tsingtao, Weather by CustomWeather, © 2014

Note: Actual official high and low records may vary slightly from our data, if they occured in-between our weather recording intervals... More about our weather records

Advertising

Tsingtao weather history for previous 24 hours

 ConditionsComfort  
Time TempWeatherWind HumidityBarometerVisibility
8:00 AM
Jan 30
27 °FIce fog.6 mph69%30.48 "Hg3 mi
7:00 AM23 °FIce fog.1 mph74%30.42 "Hg2 mi
6:00 AM23 °FIce fog.3 mph80%30.42 "Hg3 mi
5:00 AM25 °FIce fog.3 mph74%30.39 "Hg2 mi
4:00 AM25 °FIce fog.3 mph80%30.42 "Hg2 mi
3:00 AM25 °FIce fog.1 mph74%30.39 "Hg2 mi
2:00 AM25 °FClear.3 mph74%30.42 "Hg3 mi
1:00 AM27 °FClear.3 mph69%30.42 "Hg3 mi
12:00 AM25 °FClear.3 mph63%30.42 "Hg3 mi
11:00 PM
Jan 29
27 °FClear.1 mph64%30.42 "Hg3 mi
10:00 PM27 °FClear.1 mph64%30.39 "Hg4 mi
9:00 PM28 °FClear.1 mph55%30.42 "Hg4 mi
8:00 PM28 °FClear.1 mph55%30.39 "Hg10 mi
7:00 PM30 °FClear.1 mph47%30.36 "Hg10 mi
6:00 PM32 °FClear.1 mph40%30.36 "Hg10 mi
5:00 PM34 °FPassing clouds.3 mph32%30.36 "HgN/A
4:00 PM34 °FScattered clouds.6 mph29%30.33 "HgN/A
3:00 PM36 °FPartly sunny.6 mph30%30.33 "HgN/A
2:00 PM36 °FSunny.1 mph30%30.33 "Hg10 mi
1:00 PM36 °FPassing clouds.6 mph30%30.36 "HgN/A
12:00 PM34 °FSunny.8 mph32%30.39 "Hg10 mi
11:00 AM32 °FPassing clouds.6 mph34%30.42 "HgN/A
10:00 AM32 °FPassing clouds.3 mph44%30.45 "HgN/A
9:00 AM28 °FPassing clouds.3 mph47%30.42 "HgN/A
Weather by CustomWeather, © 2014

See weather overviewHow to use our weather pages